{"data":{"norad_id":66419,"intl_designator":"2025-258H","name":"HULIANWANG DIGUI-103","alt_names":[],"object_type":"PAYLOAD","status":"ACTIVE","operator":null,"country":"PRC","launch_date":"2025-11-10","launch_site_code":"WSC","launch_vehicle":null,"mission":null,"orbit_class":"UNKNOWN","rcs_meters":null,"size_class":null,"mass_kg":null,"dimensions":null,"purposes":[],"wikipedia_slug":null,"has_3d_model":false,"image_url":null,"decayed_at":null,"tle_current":{"epoch":"2026-09-20T21:12:33.315552Z","epoch_age_seconds":94885,"freshness":"FRESH","line1":"1 66419U 25258H   26263.88371893 -.00000078  00000+0  10016-3 0  9990","line2":"2 66419  50.0015 312.0982 0000165 148.8676 211.2206 13.29324311 42465","mean_motion":13.29324311,"eccentricity":1.65e-5,"inclination_deg":50.0015,"raan_deg":312.0982,"arg_perigee_deg":148.8676,"mean_anomaly_deg":211.2206,"bstar":0.00010016,"rev_number":4246,"period_min":108.32571014343,"perigee_km":1149.1887450258,"apogee_km":1149.4371508741,"semimajor_km":7527.44994795,"source":"CELESTRAK","updated_at":"2026-09-21T09:00:15.964895Z"}}}